STARLINK-1327, 45555

Orbit data source: Space-Track

STARLINK-1327, 45555 is a payload satellite in LEO that was launched on Wed, 22 Apr 2020 UTC via an FALCON 9 launch vehicle from the Air Force Eastern Test Range (AFETR). Payload-class satellites include a variety of spacecraft equipped with specific instruments for various scientific and technological missions. These include communications satellites like Starlink; space stations such as the ISS; scientific satellites like the Hubble; Earth observation satellites from companies like Planet Labs, Umbra, and HawkEye 360; GPS; miniature CubeSats for education and research; and military/defense satellites.

Loading next visibility...
Identifier
45555, 2020-025AA
Orbit
LEO
Last TLE update
13 hours ago
Origin
Manufacturer
SpaceX/Seattle
Mission
Operational Commercial Communications
Bus & Motor
STARLINK, Unknown motor
Mass
260 kg wet, ~248 kg dry
Launch date (UTC)
2020-04-22 (5 years ago)
Launch vehicle
FALCON 9
Launch site
Air Force Eastern Test Range (AFETR)
Object type
Payload
Rocket body
Debris
Shape & HBR
Box + 1 Pan, 8.86 m
Radar Cross Section
13.562 m², Large (>1 m²)

Expand to show TLE details & history

TLE from 13 hours ago
0 STARLINK-1327
1 45555U 20025AA  25141.47815269  .00001296  00000-0  10591-3 0  9995
2 45555  53.0548 318.4081 0001381  98.8448 261.2697 15.06396231281325
Epoch: 2025-05-21T11:28Z
TLE epoch observation values (Epoch: 2025-05-21T11:28:32.392Z)
Latitude
-0.00005°
Longitude
-93.08839°
Altitude
548.248 km
Speed
7.589 km/s
True Right ascension
21h 13m 37s
True Declination
0° 00' 00"
Sunlit
Object was in daylight at epoch
Visualization orbit readout
Latitude
24.57077°
Longitude
-75.50062°
Altitude
547.794 km
Speed
7.592 km/s
Apparent Right ascension
21h 56m 07s
Apparent Declination
-6° 12' 35"
Sunlit
Object is in daylight
Visualization observer readout
Local Sidereal Time
09:20:12
Azimuth
344.172° N
Elevation
-55.341°
Doppler factor
1
Orbital elements
Apogee altitude
548.45 km
Perigee altitude
546.537 km
Semi-major axis
6,925.631 km
Eccentricity
0.00014
Inclination
53.0548°
RAAN
318.4081°
Arg. of periapsis
98.8448°
True anomaly
Unknown
Mean anomaly
261.2697°
Eccentric anomaly
Unknown
Mean motion
3.76577 °/min
Orbital period
95.6 mins
BSTAR
0.00010591
Loading maneuver chart data...
Loading SW <> Apogee altitude chart data...
Loading historical data...
Loading historical data...
Loading historical data...
Loading historical data...
Loading historical data...
Loading historical data...
Loading historical data...

STARLINK-1327 Visibility forecast

Observer location: undefined°, undefined°

Span
Click to sort rows by Start time (UTC) header in descending order
Start Az.
Max El. time (UTC)
Max El. Az.
Max El.
End time (UTC)
End Az.
5 mins2025-05-22 13:06:07.518Z166.019° S2025-05-22 13:08:07.518Z134.405° SE17.058°2025-05-22 13:11:07.518Z85.582° E
6 mins2025-05-22 14:45:07.518Z246.988° WSW2025-05-22 14:48:07.518Z359.438° N39.917°2025-05-22 14:51:07.518Z43.3° NE
4 mins2025-05-22 16:26:07.518Z312.665° NW2025-05-22 16:28:07.518Z348.14° N16.905°2025-05-22 16:30:07.518Z20.326° NNE
5 mins2025-05-22 19:47:07.518Z340.172° N2025-05-22 19:49:07.518Z18.948° NNE23.209°2025-05-22 19:52:07.518Z76.504° E
6 mins2025-05-22 21:27:07.518Z295.667° NW2025-05-22 21:29:07.518Z227.304° WSW41.493°2025-05-22 21:33:07.518Z143.185° SSE
|